sat.trackr.live / text

‹ back to catalog

STARLINK-5492

NORAD 55331 · 2023-013A

PAYLOAD ACTIVE UNKNOWN

§ Identity

Operator
Country
US
Launch date
2023-01-26
Launch site
AFETR
Launch vehicle
Mass (kg)
RCS (m²)

Purposes: comms

External: N2YO · Heavens-Above · Gunter

§ Orbital elements

Epoch: 2026-09-20T08:28:06.812832Z

Period
94.27 min
Inclination
43.0020°
Eccentricity
0.0000990
Mean motion
15.27575722 rev/d
Perigee alt
482.4 km
Apogee alt
483.7 km
Semi-major
6,861.2 km
B*
3.8749e-6
RAAN
284.1459°
Arg perigee
270.0855°
Mean anomaly
89.9883°
Rev number
20,252

§ Raw data

STARLINK-54921 55331U 23013A   26263.35285663 -.00000155  00000+0  38749-5 0  99902 55331  43.0020 284.1459 0000990 270.0855  89.9883 15.27575722202525

JSON: /api/v1/satellites/55331 · /tle

For live sub-satellite position, see the globe view (requires WebGL).

§ Visibility from observer

Set your observer location to see the next 7 days of passes ≥ 10°. The values pass through the URL so the page stays shareable.

No JS? Fill the form by hand. The geolocation button needs JavaScript.